Blountville, TN

6:03 AM EST on January 19, 2017 (GMT -0500)
Tri-Cities Regional Tennessee / Virginia

Weather History for KTRI - May, 2013

Change the Weather History Date:

Tuesday, May 21, 2013

  Actual Average Record
Temperature  
Mean Temperature 73 °F 65 °F  
Max Temperature 86 °F 77 °F 93 °F (1941)
Min Temperature 59 °F 53 °F 37 °F (2002)
Degree Days  
Heating Degree Days 0 3  
Month to date heating degree days 94 90  
Since 1 July heating degree days 4295 4344  
Cooling Degree Days 8 3  
Month to date cooling degree days 27 31  
Year to date cooling degree days 33 42  
Growing Degree Days 22 (Base 50)    
Moisture  
Dew Point 62 °F    
Average Humidity 72    
Maximum Humidity 100    
Minimum Humidity 44    
Precipitation  
Precipitation 0.10 in 0.13 in 1.10 in (1947)
Month to date precipitation 2.47 2.54  
Year to date precipitation 23.07 16.13  
Snow  
Snow 0.00 in 0.00 in - ()
Month to date snowfall 0.0 0.0  
Since 1 July snowfall 9.2 13.3  
Snow Depth 0.00 in    
Sea Level Pressure  
Sea Level Pressure 30.01 in    
Wind  
Wind Speed 3 mph (WSW)    
Max Wind Speed 25 mph    
Max Gust Speed 34 mph    
Visibility 4 miles    
Events Fog , Rain , Thunderstorm    
T = Trace of Precipitation, MM = Missing Value Source: NWS Daily Summary

Daily Weather History Graph

Daily Weather History Graph

Search for Another Location

Airport or City:

Trip Planner

Search our weather history database for the weather conditions in past years. The results will help you decide how hot, cold, wet, or windy it might be!

Date:

Astronomy

May. 21, 2013 Rise Set
Actual Time 6:18 AM EDT 8:34 PM EDT
Civil Twilight 5:49 AM EDT 9:03 PM EDT
Nautical Twilight 5:13 AM EDT 9:39 PM EDT
Astronomical Twilight 4:34 AM EDT 10:19 PM EDT
Moon 4:52 PM EDT (5/21) 3:39 AM EDT (5/21)
Length of Visible Light 15h 14m
Length of Day
14h 16m
Waxing Gibbous, 84% of the Moon is Illuminated
May 21
Waxing Gibbous
May 25
Full
May 31
Last Quarter
Jun 8
New
Jun 16
First Quarter

Hourly Weather History & Observations

Time (EDT) Temp. Heat Index Dew Point Humidity Pressure Visibility Wind Dir Wind Speed Gust Speed Precip Events Conditions
12:12 AM 63.0 °F - 62.1 °F 97% 30.05 in 1.5 mi Calm Calm - N/A   Clear
12:28 AM 63.0 °F - 61.0 °F 93% 30.04 in 2.0 mi NW 3.5 mph - N/A   Clear
12:53 AM 62.1 °F - 60.1 °F 93% 29.98 in 2.0 mi Calm Calm - N/A   Clear
1:53 AM 62.1 °F - 61.0 °F 96% 29.97 in 2.0 mi Calm Calm - N/A   Clear
2:00 AM 63.0 °F - 61.0 °F 93% 30.03 in 3.0 mi Calm Calm - N/A   Clear
2:20 AM 61.0 °F - 60.1 °F 97% 30.03 in 3.0 mi Calm Calm - N/A   Scattered Clouds
2:26 AM 61.0 °F - 60.1 °F 97% 30.04 in 2.0 mi Calm Calm - N/A   Mostly Cloudy
2:36 AM 61.0 °F - 60.1 °F 97% 30.04 in 1.0 mi Calm Calm - N/A   Mist
2:43 AM 61.0 °F - 60.1 °F 97% 30.04 in 0.2 mi Calm Calm - N/A Fog Fog
2:53 AM 61.0 °F - 60.1 °F 97% 29.98 in 0.5 mi Calm Calm - N/A Fog Fog
3:09 AM 61.0 °F - 60.1 °F 97% 30.04 in 1.5 mi Calm Calm - N/A   Partly Cloudy
3:11 AM 60.1 °F - 59.0 °F 96% 30.04 in 1.0 mi Calm Calm - N/A   Mist
3:33 AM 61.0 °F - 60.1 °F 97% 30.05 in 0.2 mi Calm Calm - N/A Fog Fog
3:53 AM 60.1 °F - 59.0 °F 96% 29.99 in 0.2 mi Calm Calm - N/A Fog Fog
4:33 AM 61.0 °F - 60.1 °F 97% 30.04 in 0.2 mi Calm Calm - N/A Fog Fog
4:53 AM 61.0 °F - 60.1 °F 97% 29.99 in 0.2 mi North 3.5 mph - N/A Fog Fog
5:37 AM 61.0 °F - 60.1 °F 97% 30.05 in 0.2 mi Calm Calm - N/A Fog Fog
5:53 AM 60.1 °F - 59.0 °F 96% 29.99 in 0.5 mi Calm Calm - N/A Fog Fog
6:16 AM 61.0 °F - 59.0 °F 93% 30.06 in 0.5 mi Calm Calm - N/A Fog Fog
6:53 AM 60.1 °F - 59.0 °F 96% 30.00 in 0.2 mi Calm Calm - N/A Fog Fog
7:02 AM 61.0 °F - 60.1 °F 97% 30.06 in 0.1 mi Calm Calm - N/A Fog Fog
7:25 AM 61.0 °F - 60.1 °F 97% 30.07 in 0.1 mi Calm Calm - N/A Fog Fog
7:53 AM 62.1 °F - 61.0 °F 96% 30.01 in 0.1 mi Calm Calm - N/A Fog Fog
8:13 AM 63.0 °F - 62.1 °F 97% 30.09 in 0.2 mi Calm Calm - N/A Fog Fog
8:35 AM 63.0 °F - 62.1 °F 97% 30.09 in 0.5 mi Variable 3.5 mph - N/A Fog Fog
8:53 AM 64.0 °F - 63.0 °F 96% 30.04 in 0.8 mi Calm Calm - N/A   Overcast
9:05 AM 64.9 °F - 64.0 °F 97% 30.10 in 1.5 mi Calm Calm - N/A   Overcast
9:35 AM 66.9 °F - 64.0 °F 90% 30.11 in 1.5 mi Calm Calm - N/A   Mostly Cloudy
9:43 AM 68.0 °F - 64.0 °F 87% 30.10 in 7.0 mi Calm Calm - N/A   Mostly Cloudy
9:53 AM 70.0 °F - 64.9 °F 84% 30.04 in 8.0 mi Calm Calm - N/A   Scattered Clouds
10:53 AM 75.0 °F - 66.0 °F 73% 30.03 in 10.0 mi Calm Calm - N/A   Scattered Clouds
11:53 AM 77.0 °F - 64.9 °F 66% 30.02 in 10.0 mi WSW 4.6 mph - N/A   Mostly Cloudy
12:53 PM 79.0 °F - 66.0 °F 64% 30.00 in 10.0 mi Variable 3.5 mph - N/A   Scattered Clouds
1:53 PM 81.0 °F 82.7 °F 64.9 °F 58% 29.96 in 10.0 mi SE 5.8 mph - N/A   Scattered Clouds
2:53 PM 82.0 °F 83.4 °F 64.0 °F 54% 29.94 in 10.0 mi South 3.5 mph - N/A   Scattered Clouds
3:53 PM 84.0 °F 84.5 °F 62.1 °F 47% 29.92 in 10.0 mi Calm Calm - N/A   Scattered Clouds
4:53 PM 84.9 °F 85.9 °F 63.0 °F 48% 29.88 in 10.0 mi Calm Calm - N/A   Scattered Clouds
5:53 PM 84.9 °F 84.8 °F 60.1 °F 43% 29.89 in 10.0 mi Variable 4.6 mph - N/A   Scattered Clouds
6:53 PM 84.0 °F 84.5 °F 62.1 °F 47% 29.87 in 10.0 mi NW 4.6 mph - N/A   Scattered Clouds
7:53 PM 80.1 °F 81.5 °F 63.0 °F 56% 29.89 in 10.0 mi WNW 5.8 mph - N/A   Mostly Cloudy
8:07 PM 80.1 °F 81.5 °F 63.0 °F 56% 29.96 in 10.0 mi WNW 9.2 mph - N/A Thunderstorm Thunderstorm
8:53 PM 66.0 °F - 63.0 °F 90% 30.00 in 4.0 mi South 19.6 mph 28.8 mph 0.03 in Rain , Thunderstorm Heavy Thunderstorms and Rain
9:00 PM 66.0 °F - 63.0 °F 90% 30.06 in 6.0 mi South 12.7 mph 26.5 mph 0.01 in Rain , Thunderstorm Light Thunderstorms and Rain
9:42 PM 64.9 °F - 62.1 °F 90% 30.04 in 10.0 mi East 4.6 mph - 0.01 in   Mostly Cloudy
9:53 PM 64.9 °F - 62.1 °F 90% 29.98 in 10.0 mi East 5.8 mph - 0.01 in Thunderstorm Thunderstorm
10:53 PM 64.9 °F - 62.1 °F 90% 29.95 in 9.0 mi Calm Calm - 0.06 in Rain Light Rain
11:53 PM 64.0 °F - 62.1 °F 93% 29.94 in 10.0 mi Calm Calm - 0.00 in   Mostly Cloudy